Tracking 31027 objects as of 18-Jul-2025
HD Live streaming from Space Station
objects crossing your sky now

CZ-2C R/B

Track CZ-2C R/B now!
10-day predictions


NORAD ID: 37766
Int'l Code: 2011-039B
Perigee: 639.6 km
Apogee: 698.5 km
Inclination: 98.1 °
Period: 98.0 minutes
Semi major axis: 7040 km
RCS: 8.199 m2 (large)
Launch date: July 29, 2011
Source: People's Republic of China (PRC)
Launch site: Jiuquan Satellite Launch Center, China (JSC)

Note: This is a ROCKET BODY
Your satellite tracking list
Your tracking list is empty




NASA's NSSDC Master Catalog

Two Line Element Set (TLE):
1 37766U 11039B   25199.45157674  .00000440  00000-0  81498-4 0  9990
2 37766  98.1378  93.6758 0041875 291.4522  68.2220 14.69732030747761
Source of the keplerian elements: AFSPC